Hourly Weather Dziadowka

Today, 6 May, Thursday

Time Temperature Precipitation Wind Pressure Humidity
00:00 +4°C° 0 mm 7 mps 732 mmHg 86%
01:00 +4°C° 0 mm 6 mps 733 mmHg 85%
02:00 +3°C° 0 mm 6 mps 734 mmHg 86%
03:00 +3°C° 0 mm 6 mps 734 mmHg 87%
04:00 +2°C° 0 mm 6 mps 735 mmHg 88%
05:00 +3°C° 0 mm 6 mps 736 mmHg 82%
06:00 +4°C° 0 mm 7 mps 736 mmHg 77%
07:00 +4°C° 0 mm 7 mps 737 mmHg 72%
08:00 +6°C° 0 mm 7 mps 737 mmHg 63%
09:00 +8°C° 0 mm 7 mps 738 mmHg 54%
10:00 +9°C° 0 mm 6 mps 738 mmHg 46%
11:00 +10°C° 0 mm 6 mps 738 mmHg 45%
12:00 +11°C° 0 mm 6 mps 737 mmHg 44%
13:00 +11°C° 0 mm 6 mps 737 mmHg 43%
14:00 +11°C° 0 mm 6 mps 737 mmHg 47%
15:00 +12°C° 0 mm 5 mps 736 mmHg 52%
16:00 +12°C° 0 mm 4 mps 736 mmHg 56%
17:00 +11°C° 0 mm 3 mps 736 mmHg 61%
18:00 +9°C° 0 mm 2 mps 736 mmHg 66%
19:00 +9°C° 0 mm 1 mps 735 mmHg 71%
20:00 +9°C° 0.1 mm 1 mps 735 mmHg 73%
21:00 +9°C° 0.1 mm 1 mps 735 mmHg 75%
22:00 +8°C° 0.1 mm 2 mps 735 mmHg 78%
23:00 +7°C° 0 mm 2 mps 735 mmHg 79%

Tomorrow, 7 May, Friday

Time Temperature Precipitation Wind Pressure Humidity
00:00 +7°C° 0 mm 2 mps 735 mmHg 81%
01:00 +6°C° 0 mm 2 mps 735 mmHg 83%
02:00 +6°C° 0 mm 2 mps 734 mmHg 83%
03:00 +5°C° 0 mm 3 mps 734 mmHg 84%
04:00 +5°C° 0 mm 3 mps 734 mmHg 85%
05:00 +7°C° 0 mm 3 mps 734 mmHg 82%
06:00 +8°C° 0 mm 4 mps 734 mmHg 79%
07:00 +10°C° 0 mm 4 mps 735 mmHg 76%
08:00 +10°C° 0.2 mm 4 mps 735 mmHg 78%
09:00 +10°C° 0.2 mm 4 mps 735 mmHg 80%
10:00 +10°C° 0.2 mm 4 mps 735 mmHg 83%
11:00 +10°C° 0.5 mm 4 mps 736 mmHg 84%
12:00 +8°C° 0.5 mm 5 mps 736 mmHg 85%
13:00 +8°C° 0.5 mm 5 mps 737 mmHg 87%
14:00 +7°C° 0.1 mm 5 mps 737 mmHg 86%
15:00 +7°C° 0.1 mm 4 mps 738 mmHg 85%
16:00 +6°C° 0.1 mm 4 mps 739 mmHg 84%
17:00 +7°C° 0 mm 3 mps 739 mmHg 85%
18:00 +5°C° 0 mm 3 mps 739 mmHg 87%
19:00 +6°C° 0 mm 2 mps 740 mmHg 88%
20:00 +5°C° 0 mm 2 mps 740 mmHg 89%
21:00 +4°C° 0 mm 2 mps 740 mmHg 90%
22:00 +4°C° 0 mm 2 mps 741 mmHg 91%
23:00 +4°C° 0 mm 2 mps 741 mmHg 91%

Day after tomorrow, 8 May, Saturday

Time Temperature Precipitation Wind Pressure Humidity
00:00 +4°C° 0 mm 2 mps 741 mmHg 91%
01:00 +5°C° 0 mm 1 mps 741 mmHg 91%
02:00 +3°C° 0 mm 2 mps 741 mmHg 92%
03:00 +3°C° 0 mm 2 mps 741 mmHg 93%
04:00 +3°C° 0 mm 2 mps 740 mmHg 94%
05:00 +3°C° 0 mm 3 mps 740 mmHg 89%
06:00 +5°C° 0 mm 3 mps 740 mmHg 84%
07:00 +7°C° 0 mm 4 mps 740 mmHg 79%
08:00 +7°C° 0 mm 4 mps 739 mmHg 80%
09:00 +8°C° 0 mm 4 mps 739 mmHg 81%
10:00 +8°C° 0 mm 4 mps 738 mmHg 82%
11:00 +12°C° 0 mm 4 mps 738 mmHg 77%
12:00 +14°C° 0 mm 4 mps 737 mmHg 71%
13:00 +17°C° 0 mm 4 mps 737 mmHg 65%
14:00 +19°C° 0 mm 4 mps 736 mmHg 64%
15:00 +20°C° 0 mm 4 mps 736 mmHg 64%
16:00 +21°C° 0 mm 4 mps 736 mmHg 64%
17:00 +19°C° 0 mm 3 mps 735 mmHg 70%
18:00 +17°C° 0 mm 3 mps 735 mmHg 77%
19:00 +16°C° 0 mm 3 mps 735 mmHg 84%
20:00 +14°C° 0 mm 3 mps 735 mmHg 85%
21:00 +13°C° 0 mm 3 mps 735 mmHg 87%
22:00 +12°C° 0 mm 3 mps 735 mmHg 89%
23:00 +12°C° 0 mm 3 mps 734 mmHg 89%

9 May, Sunday

Time Temperature Precipitation Wind Pressure Humidity
00:00 +12°C° 0 mm 3 mps 734 mmHg 90%
01:00 +12°C° 0 mm 3 mps 734 mmHg 91%

10 May, Monday

Time Temperature Precipitation Wind Pressure Humidity

11 May, Tuesday

Time Temperature Precipitation Wind Pressure Humidity
Show more